DW2113 Weather Reports


Display with metric or nautical units.
time (UTC)temp
F
wind
direction
speed
MPH
gust
MPH
rain 1hr
in
rain 24hr
in
rain mn
in
humidity
%
barometer
mb
20260906211830 100 360 5.0 12.0 0.00 0.00 0.00 38
20260906211330 100 360 7.0 13.0 0.00 0.00 0.00 37
20260906210850 100 360 6.0 13.0 0.00 0.00 0.00 38
20260906210330 99 360 8.0 13.0 0.00 0.00 0.00 38
20260906205831 100 360 6.0 12.0 0.00 0.00 0.00 37
20260906205335 100 360 6.0 11.0 0.00 0.00 0.00 38
20260906204836 100 360 6.0 10.0 0.00 0.00 0.00 38
20260906204336 99 360 5.0 12.0 0.00 0.00 0.00 39
20260906203836 99 360 7.0 12.0 0.00 0.00 0.00 39
20260906203336 100 360 6.0 12.0 0.00 0.00 0.00 39
20260906202838 99 360 6.0 12.0 0.00 0.00 0.00 38
20260906202357 99 360 5.0 10.0 0.00 0.00 0.00 38
20260906201857 99 360 7.0 10.0 0.00 0.00 0.00 39
20260906201335 99 360 5.0 12.0 0.00 0.00 0.00 39
20260906200856 99 360 7.0 12.0 0.00 0.00 0.00 38
20260906200335 98 360 5.0 14.0 0.00 0.00 0.00 39
20260906195837 99 360 9.0 14.0 0.00 0.00 0.00 39
20260906195336 99 360 5.0 15.0 0.00 0.00 0.00 38
20260906194837 99 360 11.0 15.0 0.00 0.00 0.00 38
20260906194338 99 360 4.0 13.0 0.00 0.00 0.00 39
20260906193838 99 360 5.0 11.0 0.00 0.00 0.00 40
20260906193343 98 360 6.0 11.0 0.00 0.00 0.00 41
20260906192843 99 360 6.0 12.0 0.00 0.00 0.00 40
20260906192342 98 360 8.0 12.0 0.00 0.00 0.00 40
20260906191844 99 360 6.0 14.0 0.00 0.00 0.00 39
20260906191323 98 360 5.0 14.0 0.00 0.00 0.00 41
20260906190824 98 360 4.0 11.0 0.00 0.00 0.00 40
20260906190324 98 360 7.0 15.0 0.00 0.00 0.00 40
20260906185845 98 360 9.0 15.0 0.00 0.00 0.00 41
20260906185344 98 360 5.0 14.0 0.00 0.00 0.00 41
20260906184844 98 360 8.0 14.0 0.00 0.00 0.00 41
20260906184345 98 360 9.0 14.0 0.00 0.00 0.00 40
20260906183844 98 360 5.0 12.0 0.00 0.00 0.00 40
20260906183329 98 360 7.0 13.0 0.00 0.00 0.00 40
20260906182831 98 360 8.0 13.0 0.00 0.00 0.00 40
20260906182329 97 360 5.0 14.0 0.00 0.00 0.00 41
20260906181829 97 360 8.0 14.0 0.00 0.00 0.00 41
20260906181329 97 360 5.0 11.0 0.00 0.00 0.00 40
20260906180830 97 360 6.0 10.0 0.00 0.00 0.00 40
20260906180330 97 360 6.0 9.0 0.00 0.00 0.00 41
20260906175830 97 360 4.0 10.0 0.00 0.00 0.00 41
20260906175330 97 360 5.0 10.0 0.00 0.00 0.00 41
20260906174830 97 360 4.0 10.0 0.00 0.00 0.00 42
20260906174351 96 360 5.0 10.0 0.00 0.00 0.00 42
20260906173851 96 360 5.0 8.0 0.00 0.00 0.00 42
20260906173351 96 360 4.0 8.0 0.00 0.00 0.00 43
20260906172832 96 360 2.0 10.0 0.00 0.00 0.00 42
20260906172332 96 360 6.0 10.0 0.00 0.00 0.00 43
20260906171831 96 360 5.0 11.0 0.00 0.00 0.00 42
20260906171336 95 360 5.0 11.0 0.00 0.00 0.00 43
20260906170836 95 360 6.0 10.0 0.00 0.00 0.00 45
20260906170329 95 360 7.0 10.0 0.00 0.00 0.00 44
20260906165847 95 360 6.0 11.0 0.00 0.00 0.00 44
20260906165407 95 360 8.0 11.0 0.00 0.00 0.00 44
20260906164846 95 360 5.0 9.0 0.00 0.00 0.00 44
20260906164406 95 360 4.0 10.0 0.00 0.00 0.00 44
20260906163825 95 360 5.0 10.0 0.00 0.00 0.00 44
20260906163326 95 360 7.0 10.0 0.00 0.00 0.00 43
20260906162847 94 360 3.0 8.0 0.00 0.00 0.00 45
20260906162326 94 360 4.0 7.0 0.00 0.00 0.00 45
20260906161825 95 360 4.0 7.0 0.00 0.00 0.00 46
20260906161326 94 360 3.0 8.0 0.00 0.00 0.00 46
20260906160847 94 360 3.0 8.0 0.00 0.00 0.00 46
20260906160326 94 360 3.0 4.0 0.00 0.00 0.00 47
20260906155907 94 360 2.0 6.0 0.00 0.00 0.00 47
20260906155346 94 360 2.0 6.0 0.00 0.00 0.00 47
20260906154827 94 360 0.0 3.0 0.00 0.00 0.00 48
20260906154330 93 360 1.0 3.0 0.00 0.00 0.00 49
20260906153851 92 360 1.0 4.0 0.00 0.00 0.00 49
20260906153330 92 360 2.0 5.0 0.00 0.00 0.00 50
20260906152851 91 360 2.0 5.0 0.00 0.00 0.00 51
20260906152329 91 360 2.0 4.0 0.00 0.00 0.00 50
20260906151850 91 360 1.0 4.0 0.00 0.00 0.00 51
20260906151330 90 360 2.0 4.0 0.00 0.00 0.00 52
20260906150829 90 360 2.0 5.0 0.00 0.00 0.00 53
20260906150330 89 360 2.0 5.0 0.00 0.00 0.00 53
20260906145831 88 360 3.0 5.0 0.00 0.00 0.00 54
20260906145330 88 360 3.0 5.0 0.00 0.00 0.00 55
20260906144831 88 360 2.0 4.0 0.00 0.00 0.00 55
20260906144330 87 360 3.0 4.0 0.00 0.00 0.00 56
20260906143831 87 360 2.0 4.0 0.00 0.00 0.00 57
20260906143332 86 360 1.0 3.0 0.00 0.00 0.00 59
20260906142832 86 360 2.0 3.0 0.00 0.00 0.00 58
20260906142335 85 360 0.0 2.0 0.00 0.00 0.00 60
20260906141836 85 360 0.0 3.0 0.00 0.00 0.00 60
20260906141336 84 360 1.0 2.0 0.00 0.00 0.00 61
20260906140836 83 360 1.0 2.0 0.00 0.00 0.00 61
20260906140338 83 360 1.0 2.0 0.00 0.00 0.00 62
20260906135838 82 360 0.0 1.0 0.00 0.00 0.00 64
20260906135337 81 360 0.0 3.0 0.00 0.00 0.00 64
20260906134838 80 360 1.0 4.0 0.00 0.00 0.00 65
20260906134338 80 360 2.0 3.0 0.00 0.00 0.00 66
20260906133859 79 360 1.0 2.0 0.00 0.00 0.00 67
20260906133339 79 360 1.0 2.0 0.00 0.00 0.00 68
20260906132859 78 360 0.0 2.0 0.00 0.00 0.00 68
20260906132337 77 360 0.0 4.0 0.00 0.00 0.00 70
20260906131859 77 360 2.0 4.0 0.00 0.00 0.00 70
20260906131339 76 360 2.0 5.0 0.00 0.00 0.00 70
20260906130839 76 360 3.0 5.0 0.00 0.00 0.00 70
20260906130343 75 360 3.0 5.0 0.00 0.00 0.00 71
20260906125845 75 360 3.0 5.0 0.00 0.00 0.00 71
20260906125344 75 360 3.0 3.0 0.00 0.00 0.00 71
20260906124844 74 360 0.0 0.0 0.00 0.00 0.00 71
20260906124345 74 360 0.0 1.0 0.00 0.00 0.00 71
20260906123845 74 360 0.0 2.0 0.00 0.00 0.00 71
20260906123346 74 360 1.0 2.0 0.00 0.00 0.00 71
20260906122827 74 360 0.0 1.0 0.00 0.00 0.00 71
20260906122327 74 360 0.0 3.0 0.00 0.00 0.00 71
20260906121827 74 360 1.0 4.0 0.00 0.00 0.00 71
20260906121326 74 360 2.0 5.0 0.00 0.00 0.00 71
20260906120827 74 360 4.0 4.0 0.00 0.00 0.00 71
20260906120348 74 360 3.0 4.0 0.00 0.00 0.00 71
20260906115829 74 360 3.0 3.0 0.00 0.00 0.00 70
20260906115348 74 360 3.0 3.0 0.00 0.00 0.00 71
20260906114832 74 360 2.0 3.0 0.00 0.00 0.00 71
20260906114331 74 360 3.0 3.0 0.00 0.00 0.00 71
20260906113831 74 360 2.0 3.0 0.00 0.00 0.00 71
20260906113352 74 360 2.0 4.0 0.00 0.00 0.00 70
20260906112833 74 360 3.0 4.0 0.00 0.00 0.00 70
20260906112333 75 360 2.0 3.0 0.00 0.00 0.00 70
20260906111834 75 360 3.0 4.0 0.00 0.00 0.00 70
20260906111333 75 360 3.0 4.0 0.00 0.00 0.00 70
20260906110854 75 360 4.0 5.0 0.00 0.00 0.00 70
20260906110333 75 360 4.0 5.0 0.00 0.00 0.00 70
20260906105835 74 360 4.0 4.0 0.00 0.00 0.00 70
20260906105334 74 360 3.0 4.0 0.00 0.00 0.00 71
20260906104855 74 360 3.0 4.0 0.00 0.00 0.00 71
20260906104335 74 360 3.0 4.0 0.00 0.00 0.00 71
20260906103835 74 360 4.0 6.0 0.00 0.00 0.00 71
20260906103355 74 360 4.0 6.0 0.00 0.00 0.00 70
20260906102856 74 360 5.0 6.0 0.00 0.00 0.00 70
20260906102335 74 360 4.0 5.0 0.00 0.00 0.00 71
20260906101840 74 360 4.0 5.0 0.00 0.00 0.00 71
20260906101400 74 360 2.0 3.0 0.00 0.00 0.00 71
20260906100840 74 360 2.0 3.0 0.00 0.00 0.00 71
20260906100339 74 360 2.0 3.0 0.00 0.00 0.00 70
20260906095840 74 360 0.0 0.0 0.00 0.00 0.00 69
20260906095340 75 360 0.0 0.0 0.00 0.00 0.00 69
20260906094840 75 360 0.0 1.0 0.00 0.00 0.00 68
20260906094340 75 360 0.0 0.0 0.00 0.00 0.00 69
20260906093841 75 360 0.0 0.0 0.00 0.00 0.00 69
20260906093401 75 360 0.0 0.0 0.00 0.00 0.00 69
20260906092841 75 360 0.0 0.0 0.00 0.00 0.00 69
20260906092341 75 360 0.0 0.0 0.00 0.00 0.00 68
20260906091842 75 360 0.0 0.0 0.00 0.00 0.00 68
20260906091342 76 360 0.0 0.0 0.00 0.00 0.00 68
20260906090827 76 360 0.0 0.0 0.00 0.00 0.00 68
20260906090328 76 360 0.0 0.0 0.00 0.00 0.00 67
20260906085828 76 360 0.0 0.0 0.00 0.00 0.00 67
20260906085327 77 360 0.0 0.0 0.00 0.00 0.00 66
20260906084827 77 360 0.0 0.0 0.00 0.00 0.00 66
20260906084328 77 360 0.0 0.0 0.00 0.00 0.00 66
20260906083829 77 360 0.0 0.0 0.00 0.00 0.00 66
20260906083330 77 360 0.0 0.0 0.00 0.00 0.00 66
20260906082831 77 360 0.0 2.0 0.00 0.00 0.00 66
20260906082330 77 360 1.0 2.0 0.00 0.00 0.00 66
20260906081830 77 360 1.0 4.0 0.00 0.00 0.00 66
20260906081352 77 360 3.0 5.0 0.00 0.00 0.00 66
20260906080831 77 360 4.0 5.0 0.00 0.00 0.00 66
20260906080332 77 360 4.0 5.0 0.00 0.00 0.00 65
20260906075838 78 360 5.0 5.0 0.00 0.00 0.00 65
20260906075337 78 360 4.0 5.0 0.00 0.00 0.00 64
20260906074837 78 360 4.0 5.0 0.00 0.00 0.00 64
20260906074357 78 360 3.0 4.0 0.00 0.00 0.00 64
20260906073836 78 360 4.0 4.0 0.00 0.00 0.00 64
20260906073337 78 360 3.0 4.0 0.00 0.00 0.00 64
20260906072837 78 360 3.0 4.0 0.00 0.00 0.00 64
20260906072337 78 360 3.0 4.0 0.00 0.00 0.00 64
20260906071837 78 360 3.0 4.0 0.00 0.00 0.00 64
20260906071337 78 360 3.0 4.0 0.00 0.00 0.00 64
20260906070838 78 360 2.0 3.0 0.00 0.00 0.00 64
20260906070338 78 360 2.0 3.0 0.00 0.00 0.00 64
20260906065838 78 360 2.0 3.0 0.00 0.00 0.00 63
20260906065338 79 360 2.0 3.0 0.00 0.00 0.00 63
20260906064842 79 360 1.0 3.0 0.00 0.00 0.00 63
20260906064402 79 360 2.0 4.0 0.00 0.00 0.00 63
20260906063841 79 360 3.0 4.0 0.00 0.00 0.00 63
20260906063342 79 360 2.0 3.0 0.00 0.00 0.00 63
20260906062843 79 360 0.0 0.0 0.00 0.00 0.00 63
20260906062342 79 360 0.0 1.0 0.00 0.00 0.00 63
20260906061843 79 360 0.0 3.0 0.00 0.00 0.00 63
20260906061344 79 360 2.0 3.0 0.00 0.00 0.00 63
20260906060823 79 360 2.0 3.0 0.00 0.00 0.00 63
20260906060323 79 360 2.0 3.0 0.00 0.00 0.00 63
20260906055844 79 360 2.0 2.0 0.00 0.00 0.00 62
20260906055404 79 360 1.0 2.0 0.00 0.00 0.00 62
20260906054842 80 360 1.0 2.0 0.00 0.00 0.00 61
20260906054404 81 360 1.0 3.0 0.00 0.00 0.00 60
20260906053843 81 360 2.0 3.0 0.00 0.00 0.00 60
20260906053327 81 360 2.0 3.0 0.00 0.00 0.00 60
20260906052829 81 360 2.0 4.0 0.00 0.00 0.00 59
20260906052327 81 360 3.0 4.0 0.00 0.00 0.00 59
20260906051848 81 360 3.0 4.0 0.00 0.00 0.00 58
20260906051328 81 360 3.0 4.0 0.00 0.00 0.00 58
20260906050829 81 360 2.0 4.0 0.00 0.00 0.00 59
20260906050340 81 360 2.0 4.0 0.00 0.00 0.00 59
20260906045841 81 360 3.0 4.0 0.00 0.00 0.00 59
20260906045340 81 360 3.0 4.0 0.00 0.00 0.00 60
20260906044843 81 360 3.0 4.0 0.00 0.00 0.00 60
20260906044343 81 360 4.0 4.0 0.00 0.00 0.00 60
20260906043904 81 360 3.0 4.0 0.00 0.00 0.00 59
20260906043323 81 360 3.0 4.0 0.00 0.00 0.00 59
20260906042825 82 360 3.0 4.0 0.00 0.00 0.00 59
20260906042343 82 360 2.0 3.0 0.00 0.00 0.00 58
20260906041828 82 360 2.0 3.0 0.00 0.00 0.00 58
20260906041348 82 360 2.0 3.0 0.00 0.00 0.00 58
20260906040828 83 360 2.0 3.0 0.00 0.00 0.00 58
20260906040348 83 360 2.0 4.0 0.00 0.00 0.00 57
20260906035829 83 360 3.0 5.0 0.00 0.00 0.00 57
20260906035327 83 360 3.0 4.0 0.00 0.00 0.00 56
20260906034828 83 360 4.0 4.0 0.00 0.00 0.00 55
20260906034328 83 360 3.0 4.0 0.00 0.00 0.00 55
20260906033827 83 360 3.0 5.0 0.00 0.00 0.00 55
20260906033328 83 360 4.0 5.0 0.00 0.00 0.00 55
20260906032830 83 360 4.0 5.0 0.00 0.00 0.00 54
20260906032350 84 360 4.0 5.0 0.00 0.00 0.00 54
20260906031828 84 360 4.0 5.0 0.00 0.00 0.00 54
20260906031330 84 360 4.0 5.0 0.00 0.00 0.00 53
20260906030849 84 360 4.0 6.0 0.00 0.00 0.00 53
20260906030329 84 360 5.0 6.0 0.00 0.00 0.00 53
20260906025831 84 360 4.0 5.0 0.00 0.00 0.00 53
20260906025351 84 360 3.0 4.0 0.00 0.00 0.00 53
20260906024833 84 360 4.0 5.0 0.00 0.00 0.00 53
20260906024334 85 360 4.0 5.0 0.00 0.00 0.00 52
20260906023834 86 360 3.0 4.0 0.00 0.00 0.00 50
20260906023334 87 360 2.0 4.0 0.00 0.00 0.00 49
20260906022834 87 360 2.0 4.0 0.00 0.00 0.00 49
20260906022334 87 360 3.0 4.0 0.00 0.00 0.00 49
20260906021834 87 360 3.0 4.0 0.00 0.00 0.00 49
20260906021335 87 360 3.0 4.0 0.00 0.00 0.00 48
20260906020855 87 360 2.0 3.0 0.00 0.00 0.00 48
20260906020335 87 360 2.0 3.0 0.00 0.00 0.00 48
20260906015856 88 360 2.0 4.0 0.00 0.00 0.00 48
20260906015336 88 360 3.0 4.0 0.00 0.00 0.00 48
20260906014856 89 360 3.0 4.0 0.00 0.00 0.00 47
20260906014357 89 360 2.0 4.0 0.00 0.00 0.00 47
20260906013837 89 360 3.0 4.0 0.00 0.00 0.00 47
20260906013336 89 360 2.0 3.0 0.00 0.00 0.00 47
20260906012836 90 360 1.0 3.0 0.00 0.00 0.00 46
20260906012340 90 360 2.0 3.0 0.00 0.00 0.00 46
20260906011903 91 360 2.0 3.0 0.00 0.00 0.00 46
20260906011342 91 360 2.0 3.0 0.00 0.00 0.00 45
20260906010842 92 360 2.0 4.0 0.00 0.00 0.00 44
20260906010341 92 360 3.0 3.0 0.00 0.00 0.00 45
20260906005842 92 360 2.0 3.0 0.00 0.00 0.00 45
20260906005341 92 360 2.0 4.0 0.00 0.00 0.00 45
20260906004841 93 360 2.0 5.0 0.00 0.00 0.00 44
20260906004342 93 360 3.0 5.0 0.00 0.00 0.00 44
20260906003843 93 360 3.0 6.0 0.00 0.00 0.00 44
20260906003343 94 360 4.0 6.0 0.00 0.00 0.00 43
20260906002844 94 360 4.0 8.0 0.00 0.00 0.00 43
20260906002342 94 360 5.0 8.0 0.00 0.00 0.00 43
20260906001827 94 360 3.0 9.0 0.00 0.00 0.00 42
20260906001348 95 360 5.0 9.0 0.00 0.00 0.00 42
20260906000827 95 360 5.0 10.0 0.00 0.00 0.00 42
20260906000328 95 360 4.0 10.0 0.00 0.00 0.00 41
20260905235832 96 360 7.0 10.0 0.00 0.00 0.00 41
20260905235331 96 360 4.0 10.0 0.00 0.00 0.00 41
20260905234832 96 360 7.0 11.0 0.00 0.00 0.00 41
20260905234332 96 360 6.0 12.0 0.00 0.00 0.00 40
20260905233832 96 360 6.0 12.0 0.00 0.00 0.00 40
20260905233334 96 360 6.0 10.0 0.00 0.00 0.00 40
20260905232835 97 360 6.0 10.0 0.00 0.00 0.00 40
20260905232334 97 360 5.0 10.0 0.00 0.00 0.00 39
20260905231835 97 360 5.0 10.0 0.00 0.00 0.00 39
20260905231355 97 360 7.0 11.0 0.00 0.00 0.00 39
20260905230855 97 360 4.0 14.0 0.00 0.00 0.00 38
20260905230334 97 360 5.0 14.0 0.00 0.00 0.00 38
20260905225840 98 360 6.0 11.0 0.00 0.00 0.00 38
20260905225340 98 360 7.0 10.0 0.00 0.00 0.00 38
20260905224839 98 360 5.0 10.0 0.00 0.00 0.00 37
20260905224359 98 360 4.0 9.0 0.00 0.00 0.00 37
20260905223839 98 360 4.0 13.0 0.00 0.00 0.00 36
20260905223340 98 360 9.0 13.0 0.00 0.00 0.00 38
20260905222841 98 360 5.0 13.0 0.00 0.00 0.00 38
20260905222341 98 360 9.0 12.0 0.00 0.00 0.00 38
20260905221901 99 360 7.0 11.0 0.00 0.00 0.00 37
20260905221340 99 360 5.0 12.0 0.00 0.00 0.00 37
20260905220840 98 360 4.0 12.0 0.00 0.00 0.00 37
20260905220341 98 360 7.0 11.0 0.00 0.00 0.00 37
20260905215842 98 360 5.0 12.0 0.00 0.00 0.00 36
20260905215402 99 360 7.0 12.0 0.00 0.00 0.00 37
20260905214841 99 360 5.0 11.0 0.00 0.00 0.00 36
20260905214402 99 360 6.0 12.0 0.00 0.00 0.00 36
20260905213825 98 360 8.0 12.0 0.00 0.00 0.00 37
20260905213325 98 360 6.0 12.0 0.00 0.00 0.00 37
20260905212825 98 360 6.0 11.0 0.00 0.00 0.00 37
20260905212325 98 360 5.0 11.0 0.00 0.00 0.00 37
20260905211844 98 360 6.0 13.0 0.00 0.00 0.00 37